Change the Weather History Date:

Monday, February 25, 2013

  Actual Average Record
Temperature  
Mean Temperature 39 °F -  
Max Temperature 50 °F 65 °F 129 °F (1999)
Min Temperature 28 °F 35 °F 5 °F (1960)
Degree Days  
Heating Degree Days 26    
Moisture  
Dew Point 15 °F    
Average Humidity 44    
Maximum Humidity 86    
Minimum Humidity 19    
Precipitation  
Precipitation 0.00 in - - ()
Sea Level Pressure  
Sea Level Pressure 30.00 in    
Wind  
Wind Speed 12 mph (North)    
Max Wind Speed 18 mph    
Max Gust Speed 29 mph    
Visibility 10 miles    
Events Rain , Snow    
Averages and records for this station are not official NWS values.
T = Trace of Precipitation, MM = Missing Value Source: NWS Daily Summary

Daily Weather History Graph

Daily Weather History Graph

Search for Another Location

Airport or City:

Trip Planner

Search our weather history database for the weather conditions in past years. The results will help you decide how hot, cold, wet, or windy it might be!

Date:

Astronomy

Feb. 25, 2013 Rise Set
Actual Time 6:36 AM MST 5:58 PM MST
Civil Twilight 6:11 AM MST 6:23 PM MST
Nautical Twilight 5:42 AM MST 6:51 PM MST
Astronomical Twilight 5:14 AM MST 7:20 PM MST
Moon 6:10 PM MST (2/25) 6:10 AM MST (2/25)
Length of Visible Light 12h 11m
Length of Day
11h 22m
Full, 100% of the Moon is Illuminated
Feb 25
Full
Feb 25
Full
Mar 4
Last Quarter
Mar 11
New
Mar 19
First Quarter

Hourly Weather History & Observations

Time (MST) Temp. Windchill Dew Point Humidity Pressure Visibility Wind Dir Wind Speed Gust Speed Precip Events Conditions
12:15 AM 30.2 °F 19.3 °F 26.6 °F 86% 29.91 in 2.0 mi North 15.0 mph 19.6 mph N/A Snow Light Snow
12:55 AM 30.2 °F 21.3 °F 26.6 °F 86% 29.92 in 5.0 mi North 10.4 mph - N/A Rain Light Freezing Rain
1:15 AM 30.2 °F 21.9 °F 26.6 °F 86% 29.93 in 10.0 mi North 9.2 mph - N/A   Overcast
1:35 AM 30.2 °F 21.9 °F 26.6 °F 86% 29.93 in 10.0 mi North 9.2 mph - N/A   Overcast
1:55 AM 30.2 °F 21.3 °F 26.6 °F 86% 29.93 in 10.0 mi North 10.4 mph - N/A   Overcast
2:15 AM 32.0 °F 21.2 °F 24.8 °F 75% 29.93 in 10.0 mi North 16.1 mph 23.0 mph N/A   Scattered Clouds
2:35 AM 32.0 °F 20.5 °F 23.0 °F 69% 29.93 in 10.0 mi North 18.4 mph 23.0 mph N/A   Mostly Cloudy
2:55 AM 32.0 °F 22.1 °F 23.0 °F 69% 29.93 in 10.0 mi North 13.8 mph 23.0 mph N/A   Partly Cloudy
3:15 AM 30.2 °F 20.2 °F 23.0 °F 75% 29.94 in 10.0 mi North 12.7 mph - N/A   Clear
3:35 AM 30.2 °F 19.8 °F 23.0 °F 75% 29.95 in 10.0 mi North 13.8 mph - N/A   Clear
3:55 AM 32.0 °F 22.5 °F 23.0 °F 69% 29.96 in 10.0 mi NNE 12.7 mph - N/A   Partly Cloudy
4:15 AM 30.2 °F 20.2 °F 23.0 °F 75% 29.97 in 10.0 mi North 12.7 mph - N/A   Clear
4:35 AM 30.2 °F 20.2 °F 23.0 °F 75% 29.98 in 10.0 mi North 12.7 mph - N/A   Clear
4:55 AM 30.2 °F 19.8 °F 24.8 °F 80% 30.00 in 10.0 mi North 13.8 mph - N/A   Scattered Clouds
5:15 AM 28.4 °F 18.0 °F 24.8 °F 86% 30.00 in 10.0 mi NNE 12.7 mph - N/A   Clear
5:35 AM 28.4 °F 20.4 °F 24.8 °F 86% 30.01 in 10.0 mi NNE 8.1 mph - N/A   Clear
5:55 AM 30.2 °F 21.3 °F 24.8 °F 80% 30.01 in 10.0 mi NNE 10.4 mph - N/A   Clear
6:15 AM 32.0 °F 23.6 °F 23.0 °F 69% 30.01 in 10.0 mi NNE 10.4 mph - N/A   Clear
6:35 AM 32.0 °F 23.6 °F 21.2 °F 64% 30.02 in 10.0 mi North 10.4 mph 16.1 mph N/A   Clear
6:55 AM 32.0 °F 23.0 °F 23.0 °F 69% 30.03 in 10.0 mi North 11.5 mph - N/A   Clear
7:15 AM 30.2 °F 21.3 °F 21.2 °F 69% 30.04 in 10.0 mi NNW 10.4 mph - N/A   Clear
7:35 AM 32.0 °F 23.6 °F 23.0 °F 69% 30.05 in 10.0 mi North 10.4 mph - N/A   Clear
7:55 AM 33.8 °F 24.8 °F 23.0 °F 65% 30.06 in 10.0 mi North 12.7 mph - N/A   Clear
8:15 AM 35.6 °F 26.2 °F 21.2 °F 56% 30.05 in 10.0 mi NNE 15.0 mph - N/A   Clear
8:35 AM 37.4 °F 28.9 °F 19.4 °F 48% 30.05 in 10.0 mi NNW 13.8 mph - N/A   Clear
8:55 AM 37.4 °F 28.5 °F 19.4 °F 48% 30.07 in 10.0 mi NNW 15.0 mph - N/A   Clear
9:15 AM 37.4 °F 28.2 °F 19.4 °F 48% 30.08 in 10.0 mi NNW 16.1 mph 20.7 mph N/A   Clear
9:35 AM 39.2 °F 29.8 °F 17.6 °F 42% 30.09 in 10.0 mi NNW 18.4 mph 23.0 mph N/A   Clear
9:55 AM 39.2 °F 29.8 °F 17.6 °F 42% 30.09 in 10.0 mi NNW 18.4 mph - N/A   Clear
10:15 AM 39.2 °F 30.8 °F 15.8 °F 39% 30.09 in 10.0 mi NNW 15.0 mph 25.3 mph N/A   Clear
10:35 AM 41.0 °F 32.8 °F 15.8 °F 36% 30.08 in 10.0 mi NNW 16.1 mph 25.3 mph N/A   Clear
10:55 AM 42.8 °F 35.1 °F 15.8 °F 34% 30.08 in 10.0 mi NNW 16.1 mph 20.7 mph N/A   Clear
11:15 AM 44.6 °F 37.8 °F 15.8 °F 31% 30.07 in 10.0 mi North 15.0 mph 21.9 mph N/A   Clear
11:35 AM 44.6 °F 37.4 °F 15.8 °F 31% 30.06 in 5.0 mi NNW 16.1 mph 19.6 mph N/A   Haze
11:55 AM 44.6 °F 37.2 °F 15.8 °F 31% 30.04 in 10.0 mi NNW 17.3 mph 21.9 mph N/A   Clear
12:15 PM 46.4 °F 40.7 °F 15.8 °F 29% 30.04 in 9.0 mi NW 12.7 mph 25.3 mph N/A   Clear
12:35 PM 46.4 °F 40.4 °F 14.0 °F 27% 30.03 in 10.0 mi North 13.8 mph 23.0 mph N/A   Clear
12:55 PM 48.2 °F - 10.4 °F 22% 30.02 in 10.0 mi North 10.4 mph 19.6 mph N/A   Clear
1:15 PM 48.2 °F - 10.4 °F 22% 30.02 in 10.0 mi NW 15.0 mph 28.8 mph N/A   Clear
1:35 PM 48.2 °F - 10.4 °F 22% 30.02 in 10.0 mi NW 8.1 mph 17.3 mph N/A   Clear
1:55 PM 50.0 °F - 10.4 °F 20% 30.01 in 10.0 mi NW 16.1 mph 21.9 mph N/A   Clear
2:15 PM 50.0 °F - 10.4 °F 20% 30.01 in 10.0 mi NNW 13.8 mph 23.0 mph N/A   Clear
2:35 PM 50.0 °F - 10.4 °F 20% 30.00 in 10.0 mi NNW 13.8 mph 18.4 mph N/A   Clear
2:55 PM 50.0 °F - 10.4 °F 20% 30.00 in 10.0 mi WNW 15.0 mph 18.4 mph N/A   Clear
3:15 PM 50.0 °F - 10.4 °F 20% 29.99 in 10.0 mi NNW 10.4 mph 19.6 mph N/A   Clear
3:35 PM 50.0 °F - 10.4 °F 20% 29.99 in 10.0 mi NNW 12.7 mph 18.4 mph N/A   Clear
3:55 PM 50.0 °F - 10.4 °F 20% 29.99 in 10.0 mi WNW 12.7 mph 18.4 mph N/A   Clear
4:15 PM 50.0 °F - 8.6 °F 19% 29.99 in 10.0 mi NW 8.1 mph 20.7 mph N/A   Clear
4:35 PM 50.0 °F - 8.6 °F 19% 29.99 in 6.0 mi WNW 10.4 mph - N/A   Haze
4:55 PM 50.0 °F - 8.6 °F 19% 29.99 in 3.0 mi WNW 10.4 mph - N/A   Haze
5:15 PM 48.2 °F - 8.6 °F 20% 29.99 in 10.0 mi NNW 10.4 mph - N/A   Clear
5:35 PM 48.2 °F - 6.8 °F 19% 29.99 in 10.0 mi NNW 6.9 mph - N/A   Clear
5:55 PM 46.4 °F 42.9 °F 6.8 °F 20% 29.99 in 10.0 mi North 6.9 mph - N/A   Clear
6:15 PM 44.6 °F - 6.8 °F 21% 30.00 in 10.0 mi Calm Calm - N/A   Clear
6:35 PM 42.8 °F - 6.8 °F 23% 30.00 in 10.0 mi Calm Calm - N/A   Clear
6:55 PM 44.6 °F - 6.8 °F 21% 30.00 in 10.0 mi Calm Calm - N/A   Clear
7:15 PM 37.4 °F - 5.0 °F 26% 30.00 in 10.0 mi Calm Calm - N/A   Clear
7:35 PM 37.4 °F 32.8 °F 6.8 °F 28% 30.00 in 10.0 mi NE 5.8 mph - N/A   Clear
7:55 PM 35.6 °F - 6.8 °F 30% 30.01 in 10.0 mi Calm Calm - N/A   Clear
8:15 PM 37.4 °F - 6.8 °F 28% 30.01 in 10.0 mi Calm Calm - N/A   Clear
8:35 PM 37.4 °F 32.1 °F 5.0 °F 26% 30.01 in 10.0 mi NE 6.9 mph - N/A   Clear
8:55 PM 33.8 °F 25.8 °F 3.2 °F 28% 30.01 in 10.0 mi East 10.4 mph - N/A   Clear
9:15 PM 37.4 °F 32.8 °F 5.0 °F 26% 30.01 in 10.0 mi ENE 5.8 mph - N/A   Clear
9:55 PM 35.6 °F 29.2 °F 5.0 °F 28% 30.00 in 10.0 mi East 8.1 mph - N/A   Clear
10:15 PM 35.6 °F 29.9 °F 5.0 °F 28% 30.00 in 10.0 mi ENE 6.9 mph - N/A   Clear
10:35 PM 35.6 °F 29.2 °F 5.0 °F 28% 29.99 in 10.0 mi East 8.1 mph - N/A   Clear
10:55 PM 35.6 °F 29.2 °F 5.0 °F 28% 29.98 in 10.0 mi ENE 8.1 mph - N/A   Clear
11:15 PM 35.6 °F 28.6 °F 5.0 °F 28% 29.97 in 10.0 mi ENE 9.2 mph - N/A   Clear
11:35 PM 32.0 °F 27.5 °F 5.0 °F 32% 29.97 in 10.0 mi ENE 4.6 mph - N/A   Clear
11:55 PM 32.0 °F - 5.0 °F 32% 29.96 in 10.0 mi Calm Calm - N/A   Clear